This is the latest recevied weather packets stored in our database for station/object KJBR. If no packets are shown the sender has not sent any weather packets the latest 10 day(s).
| Time | Temp. | Humidity | Pressure | Rain* | Wind** | Luminosity | Snow |
|---|---|---|---|---|---|---|---|
| 1777305813 | 27.78° C | 65% | 1009.8 hPa | - | - | - | - |
| 1777305213 | 26.67° C | 65% | 1009.8 hPa | - | - | - | - |
| 1777304613 | 26.67° C | 65% | 1009.8 hPa | - | - | - | - |
| 1777304014 | 26.67° C | 61% | 1010.2 hPa | - | - | - | - |
| 1777303413 | 26.67° C | 61% | 1010.2 hPa | - | - | - | - |
| 1777302815 | 26.67° C | 61% | 1010.2 hPa | - | - | - | - |
| 1777302212 | 26.67° C | 61% | 1010.2 hPa | - | - | - | - |
| 1777301611 | 25.56° C | 69% | 1006.4 hPa | - | - | - | - |
| 1777301011 | 25.56° C | 69% | 1006.4 hPa | - | - | - | - |
| 1777300411 | 25.56° C | 69% | 1006.4 hPa | - | - | - | - |
| 1777299812 | 25.56° C | 69% | 1006.4 hPa | - | - | - | - |
| 1777299219 | 25.56° C | 69% | 1006.4 hPa | - | - | - | - |
| 1777298613 | 25° C | 73% | 1009.8 hPa | - | - | - | - |
| 1777298013 | 22.78° C | 78% | 1010.2 hPa | - | - | - | - |
| 1777297414 | 22.78° C | 78% | 1010.2 hPa | - | - | - | - |
| 1777296814 | 22.78° C | 78% | 1010.2 hPa | - | - | - | - |
| 1777296213 | 22.78° C | 78% | 1010.2 hPa | - | - | - | - |
| 1777295609 | 22.78° C | 78% | 1009.8 hPa | - | - | - | - |
| 1777295014 | 22.78° C | 78% | 1009.8 hPa | - | - | - | - |
| 1777294415 | 22.78° C | 73% | 1009.5 hPa | - | - | - | - |
| 1777293809 | 22.78° C | 73% | 1009.5 hPa | - | - | - | - |
| 1777293213 | 22.78° C | 73% | 1009.5 hPa | - | - | - | - |
| 1777292614 | 22.78° C | 73% | 1009.5 hPa | - | - | - | - |
| 1777292011 | 22.78° C | 73% | 1009.5 hPa | - | - | - | - |
| 1777291411 | 22.78° C | 73% | 1009.5 hPa | - | - | - | - |
* Rain since midnight (hover to see other rain measurements)
** Current wind speed in m/s (hover to see current wind gust speed)